contact:dominique.lefevre@mio.osupytheas.fr, maurice.libes@osupytheas.fr, didier.mallarino@osupytheas.fr
Project:EMSO http://www.emso-fr.org/EMSO-France
Depth: 2436.0 m
Title:EMSO Ligure Ouest : Data MII capteur MICROCAT
DateTime_Computer,Latitude,Longitude,Temperature,Conductivity,Pressure,DateTime_Instrument
DateTime_Computer,Latitude,Longitude,degC,S m-1,dbar,DateTime_Instrument
2020-12-28T00:01:49Z,42.805,6.029,13.2986,4.60020,2469.9,2020-12-28T02:02:49Z
2020-12-28T00:04:52Z,42.805,6.029,13.2996,4.60024,2469.914,2020-12-28T02:05:52Z
2020-12-28T00:07:55Z,42.805,6.029,13.2993,4.60007,2469.96,2020-12-28T02:08:55Z
2020-12-28T00:10:58Z,42.805,6.029,13.2987,4.60003,2469.96,2020-12-28T02:11:58Z
2020-12-28T00:14:01Z,42.805,6.029,13.2985,4.59996,2469.937,2020-12-28T02:15:01Z
2020-12-28T00:17:04Z,42.805,6.029,13.2986,4.59994,2469.947,2020-12-28T02:18:04Z
2020-12-28T00:20:08Z,42.805,6.029,13.2983,4.59996,2469.937,2020-12-28T02:21:08Z
2020-12-28T00:23:11Z,42.805,6.029,13.2986,4.60004,2469.947,2020-12-28T02:24:11Z
2020-12-28T00:26:14Z,42.805,6.029,13.2988,4.59992,2469.937,2020-12-28T02:27:14Z
2020-12-28T00:29:17Z,42.805,6.029,13.2985,4.59996,2469.947,2020-12-28T02:30:17Z
2020-12-28T00:32:20Z,42.805,6.029,13.2988,4.59994,2469.947,2020-12-28T02:33:20Z
2020-12-28T00:35:23Z,42.805,6.029,13.2986,4.59994,2469.947,2020-12-28T02:36:23Z
2020-12-28T00:38:26Z,42.805,6.029,13.2983,4.59992,2469.9,2020-12-28T02:39:26Z
2020-12-28T00:41:29Z,42.805,6.029,13.2982,4.59999,2469.923,2020-12-28T02:42:29Z
2020-12-28T00:44:33Z,42.805,6.029,13.2982,4.59993,2469.947,2020-12-28T02:45:32Z
2020-12-28T00:47:36Z,42.805,6.029,13.2982,4.59995,2469.947,2020-12-28T02:48:36Z
2020-12-28T00:50:39Z,42.805,6.029,13.2982,4.59991,2469.923,2020-12-28T02:51:39Z
2020-12-28T00:53:42Z,42.805,6.029,13.2983,4.59987,2469.923,2020-12-28T02:54:42Z
2020-12-28T00:56:45Z,42.805,6.029,13.2986,4.59997,2469.947,2020-12-28T02:57:45Z
2020-12-28T00:59:48Z,42.805,6.029,13.2982,4.59993,2469.96,2020-12-28T03:00:48Z
2020-12-28T01:02:51Z,42.805,6.029,13.2985,4.59989,2469.923,2020-12-28T03:03:51Z
2020-12-28T01:05:54Z,42.805,6.029,13.2983,4.59990,2469.937,2020-12-28T03:06:54Z
2020-12-28T01:08:58Z,42.805,6.029,13.2984,4.59988,2469.923,2020-12-28T03:09:57Z
2020-12-28T01:12:01Z,42.805,6.029,13.2981,4.59991,2469.947,2020-12-28T03:13:01Z
2020-12-28T01:15:04Z,42.805,6.029,13.2984,4.59991,2469.97,2020-12-28T03:16:04Z
2020-12-28T01:18:07Z,42.805,6.029,13.2981,4.59990,2469.947,2020-12-28T03:19:07Z
2020-12-28T01:21:10Z,42.805,6.029,13.2978,4.59986,2469.937,2020-12-28T03:22:10Z
2020-12-28T01:24:13Z,42.805,6.029,13.2981,4.59986,2469.937,2020-12-28T03:25:13Z
2020-12-28T01:27:16Z,42.805,6.029,13.2979,4.59986,2469.923,2020-12-28T03:28:16Z
2020-12-28T01:30:19Z,42.805,6.029,13.2982,4.59986,2469.984,2020-12-28T03:31:19Z
2020-12-28T01:33:22Z,42.805,6.029,13.2980,4.59986,2469.947,2020-12-28T03:34:22Z
2020-12-28T01:36:26Z,42.805,6.029,13.2981,4.59986,2469.97,2020-12-28T03:37:26Z
2020-12-28T01:39:29Z,42.805,6.029,13.2980,4.59985,2469.97,2020-12-28T03:40:29Z
2020-12-28T01:42:32Z,42.805,6.029,13.2983,4.59984,2469.984,2020-12-28T03:43:32Z
2020-12-28T01:45:35Z,42.805,6.029,13.2984,4.59985,2469.937,2020-12-28T03:46:35Z
2020-12-28T01:48:38Z,42.805,6.029,13.2984,4.59986,2469.993,2020-12-28T03:49:38Z
2020-12-28T01:51:41Z,42.805,6.029,13.2982,4.59985,2469.984,2020-12-28T03:52:41Z
2020-12-28T01:54:44Z,42.805,6.029,13.2983,4.59985,2469.984,2020-12-28T03:55:44Z
2020-12-28T01:57:47Z,42.805,6.029,13.2982,4.59987,2470.007,2020-12-28T03:58:47Z
2020-12-28T02:00:51Z,42.805,6.029,13.2980,4.59986,2469.993,2020-12-28T04:01:51Z
2020-12-28T02:03:54Z,42.805,6.029,13.2980,4.59985,2469.993,2020-12-28T04:04:54Z
2020-12-28T02:06:57Z,42.805,6.029,13.2982,4.59985,2470.007,2020-12-28T04:07:57Z
2020-12-28T02:10:00Z,42.805,6.029,13.2978,4.59990,2469.984,2020-12-28T04:11:00Z
2020-12-28T02:13:03Z,42.805,6.029,13.2976,4.59986,2469.993,2020-12-28T04:14:03Z
2020-12-28T02:16:06Z,42.805,6.029,13.2983,4.59988,2470.017,2020-12-28T04:17:06Z
2020-12-28T02:19:09Z,42.805,6.029,13.2980,4.59985,2469.993,2020-12-28T04:20:09Z
2020-12-28T02:22:12Z,42.805,6.029,13.2979,4.59986,2469.993,2020-12-28T04:23:12Z
2020-12-28T02:25:16Z,42.805,6.029,13.2979,4.59985,2470.017,2020-12-28T04:26:15Z
2020-12-28T02:28:19Z,42.805,6.029,13.2982,4.59985,2470.017,2020-12-28T04:29:19Z
2020-12-28T02:31:22Z,42.805,6.029,13.2979,4.59985,2470.017,2020-12-28T04:32:22Z
2020-12-28T02:34:25Z,42.805,6.029,13.2980,4.59986,2470.017,2020-12-28T04:35:25Z
2020-12-28T02:37:28Z,42.805,6.029,13.2982,4.59985,2470.04,2020-12-28T04:38:28Z
2020-12-28T02:40:31Z,42.805,6.029,13.2981,4.59985,2470.04,2020-12-28T04:41:31Z
2020-12-28T02:43:34Z,42.805,6.029,13.2982,4.59986,2470.017,2020-12-28T04:44:34Z
2020-12-28T02:46:37Z,42.805,6.029,13.2980,4.59986,2470.04,2020-12-28T04:47:37Z
2020-12-28T02:49:41Z,42.805,6.029,13.2980,4.59987,2470.017,2020-12-28T04:50:40Z
2020-12-28T02:52:44Z,42.805,6.029,13.2983,4.59988,2470.053,2020-12-28T04:53:44Z
2020-12-28T02:55:47Z,42.805,6.029,13.2981,4.59986,2470.053,2020-12-28T04:56:47Z
2020-12-28T02:58:50Z,42.805,6.029,13.2983,4.59986,2470.017,2020-12-28T04:59:50Z
2020-12-28T03:01:53Z,42.805,6.029,13.2983,4.59985,2469.993,2020-12-28T05:02:53Z
2020-12-28T03:04:56Z,42.805,6.029,13.2976,4.59985,2470.04,2020-12-28T05:05:56Z
2020-12-28T03:07:59Z,42.805,6.029,13.2981,4.59986,2470.03,2020-12-28T05:08:59Z
2020-12-28T03:11:02Z,42.805,6.029,13.2982,4.59986,2470.03,2020-12-28T05:12:02Z
2020-12-28T03:14:05Z,42.805,6.029,13.2983,4.59986,2470.007,2020-12-28T05:15:05Z
2020-12-28T03:17:09Z,42.805,6.029,13.2981,4.59988,2470.04,2020-12-28T05:18:09Z
2020-12-28T03:20:12Z,42.805,6.029,13.2982,4.59986,2470.063,2020-12-28T05:21:12Z
2020-12-28T03:23:15Z,42.805,6.029,13.2987,4.59986,2470.04,2020-12-28T05:24:15Z
2020-12-28T03:26:18Z,42.805,6.029,13.2980,4.59988,2470.04,2020-12-28T05:27:18Z
2020-12-28T03:29:21Z,42.805,6.029,13.2983,4.59989,2470.063,2020-12-28T05:30:21Z
2020-12-28T03:32:24Z,42.805,6.029,13.2990,4.59992,2470.1,2020-12-28T05:33:24Z
2020-12-28T03:35:27Z,42.805,6.029,13.2983,4.59990,2470.077,2020-12-28T05:36:27Z
2020-12-28T03:38:30Z,42.805,6.029,13.2979,4.59986,2470.04,2020-12-28T05:39:30Z
2020-12-28T03:41:34Z,42.805,6.029,13.2983,4.59986,2470.063,2020-12-28T05:42:34Z
2020-12-28T03:44:37Z,42.805,6.029,13.2986,4.59986,2470.03,2020-12-28T05:45:37Z
2020-12-28T03:47:40Z,42.805,6.029,13.2979,4.59986,2470.063,2020-12-28T05:48:40Z
2020-12-28T03:50:43Z,42.805,6.029,13.2980,4.59987,2470.087,2020-12-28T05:51:43Z
2020-12-28T03:53:46Z,42.805,6.029,13.2981,4.59986,2470.077,2020-12-28T05:54:46Z
2020-12-28T03:56:49Z,42.805,6.029,13.2978,4.59986,2470.063,2020-12-28T05:57:49Z
2020-12-28T03:59:52Z,42.805,6.029,13.2980,4.59986,2470.087,2020-12-28T06:00:52Z
2020-12-28T04:02:55Z,42.805,6.029,13.2982,4.59987,2470.1,2020-12-28T06:03:55Z
2020-12-28T04:05:59Z,42.805,6.029,13.2981,4.59988,2470.063,2020-12-28T06:06:58Z
2020-12-28T04:09:02Z,42.805,6.029,13.2983,4.59989,2470.063,2020-12-28T06:10:02Z
2020-12-28T04:12:05Z,42.805,6.029,13.2982,4.59987,2470.087,2020-12-28T06:13:05Z
2020-12-28T04:15:08Z,42.805,6.029,13.2980,4.59988,2470.11,2020-12-28T06:16:08Z
2020-12-28T04:18:11Z,42.805,6.029,13.2985,4.59988,2470.11,2020-12-28T06:19:11Z
2020-12-28T04:21:14Z,42.805,6.029,13.2983,4.59988,2470.11,2020-12-28T06:22:14Z
2020-12-28T04:24:17Z,42.805,6.029,13.2979,4.59990,2470.1,2020-12-28T06:25:17Z
2020-12-28T04:27:20Z,42.805,6.029,13.2984,4.59991,2470.1,2020-12-28T06:28:20Z
2020-12-28T04:30:23Z,42.805,6.029,13.2982,4.59989,2470.124,2020-12-28T06:31:23Z
2020-12-28T04:33:27Z,42.805,6.029,13.2979,4.59989,2470.11,2020-12-28T06:34:27Z
2020-12-28T04:36:30Z,42.805,6.029,13.2985,4.59989,2470.11,2020-12-28T06:37:30Z
2020-12-28T04:39:33Z,42.805,6.029,13.2986,4.59989,2470.11,2020-12-28T06:40:33Z
2020-12-28T04:42:36Z,42.805,6.029,13.2982,4.59991,2470.087,2020-12-28T06:43:36Z
2020-12-28T04:45:39Z,42.805,6.029,13.2980,4.59990,2470.156,2020-12-28T06:46:39Z
2020-12-28T04:48:42Z,42.805,6.029,13.2983,4.59990,2470.133,2020-12-28T06:49:42Z
2020-12-28T04:51:45Z,42.805,6.029,13.2982,4.59991,2470.171,2020-12-28T06:52:45Z
2020-12-28T04:54:48Z,42.805,6.029,13.2986,4.59991,2470.1,2020-12-28T06:55:48Z
2020-12-28T04:57:52Z,42.805,6.029,13.2983,4.59991,2470.087,2020-12-28T06:58:52Z
2020-12-28T05:00:55Z,42.805,6.029,13.2983,4.59991,2470.11,2020-12-28T07:01:55Z
2020-12-28T05:03:58Z,42.805,6.029,13.2984,4.59991,2470.133,2020-12-28T07:04:58Z
2020-12-28T05:07:01Z,42.805,6.029,13.2983,4.59989,2470.11,2020-12-28T07:08:01Z
2020-12-28T05:10:04Z,42.805,6.029,13.2987,4.59991,2470.18,2020-12-28T07:11:04Z
2020-12-28T05:13:07Z,42.805,6.029,13.2986,4.59990,2470.119,2020-12-28T07:14:07Z
2020-12-28T05:16:10Z,42.805,6.029,13.2982,4.59994,2470.147,2020-12-28T07:17:10Z
2020-12-28T05:19:13Z,42.805,6.029,13.2983,4.59989,2470.156,2020-12-28T07:20:13Z
2020-12-28T05:22:17Z,42.805,6.029,13.2986,4.59989,2470.194,2020-12-28T07:23:16Z
2020-12-28T05:25:20Z,42.805,6.029,13.2982,4.59993,2470.133,2020-12-28T07:26:20Z
2020-12-28T05:28:23Z,42.805,6.029,13.2983,4.59990,2470.156,2020-12-28T07:29:23Z
2020-12-28T05:31:26Z,42.805,6.029,13.2987,4.59993,2470.171,2020-12-28T07:32:26Z
2020-12-28T05:34:29Z,42.805,6.029,13.2982,4.59992,2470.133,2020-12-28T07:35:29Z
2020-12-28T05:37:32Z,42.805,6.029,13.2984,4.59994,2470.156,2020-12-28T07:38:32Z
2020-12-28T05:40:35Z,42.805,6.029,13.2986,4.59995,2470.171,2020-12-28T07:41:35Z
2020-12-28T05:43:38Z,42.805,6.029,13.2984,4.59996,2470.171,2020-12-28T07:44:38Z
2020-12-28T05:46:42Z,42.805,6.029,13.2981,4.59994,2470.18,2020-12-28T07:47:41Z
2020-12-28T05:49:45Z,42.805,6.029,13.2985,4.59991,2470.217,2020-12-28T07:50:45Z
2020-12-28T05:52:48Z,42.805,6.029,13.2986,4.59991,2470.156,2020-12-28T07:53:48Z
2020-12-28T05:55:51Z,42.805,6.029,13.2986,4.59991,2470.171,2020-12-28T07:56:51Z
2020-12-28T05:58:54Z,42.805,6.029,13.2985,4.59991,2470.171,2020-12-28T07:59:54Z
2020-12-28T06:01:57Z,42.805,6.029,13.2983,4.59992,2470.171,2020-12-28T08:02:57Z
2020-12-28T06:05:00Z,42.805,6.029,13.2986,4.59994,2470.194,2020-12-28T08:06:00Z
2020-12-28T06:08:03Z,42.805,6.029,13.2983,4.59993,2470.18,2020-12-28T08:09:03Z
2020-12-28T06:11:07Z,42.805,6.029,13.2983,4.59992,2470.194,2020-12-28T08:12:06Z
2020-12-28T06:14:10Z,42.805,6.029,13.2989,4.59994,2470.133,2020-12-28T08:15:10Z
2020-12-28T06:17:13Z,42.805,6.029,13.2983,4.59994,2470.194,2020-12-28T08:18:13Z
2020-12-28T06:20:16Z,42.805,6.029,13.2984,4.59992,2470.18,2020-12-28T08:21:16Z
2020-12-28T06:23:19Z,42.805,6.029,13.2982,4.59996,2470.194,2020-12-28T08:24:19Z
2020-12-28T06:26:22Z,42.805,6.029,13.2981,4.59995,2470.194,2020-12-28T08:27:22Z
2020-12-28T06:29:25Z,42.805,6.029,13.2983,4.59994,2470.194,2020-12-28T08:30:25Z
2020-12-28T06:32:28Z,42.805,6.029,13.2982,4.59991,2470.194,2020-12-28T08:33:28Z
2020-12-28T06:35:32Z,42.805,6.029,13.2984,4.59994,2470.217,2020-12-28T08:36:31Z
2020-12-28T06:38:35Z,42.805,6.029,13.2986,4.59994,2470.203,2020-12-28T08:39:35Z
2020-12-28T06:41:38Z,42.805,6.029,13.2983,4.59998,2470.156,2020-12-28T08:42:38Z
2020-12-28T06:44:41Z,42.805,6.029,13.2991,4.59999,2470.24,2020-12-28T08:45:41Z
2020-12-28T06:47:44Z,42.805,6.029,13.2986,4.59999,2470.203,2020-12-28T08:48:44Z
2020-12-28T06:50:47Z,42.805,6.029,13.2983,4.60002,2470.203,2020-12-28T08:51:47Z
2020-12-28T06:53:50Z,42.805,6.029,13.2991,4.59999,2470.194,2020-12-28T08:54:50Z
2020-12-28T06:56:53Z,42.805,6.029,13.2983,4.59998,2470.18,2020-12-28T08:57:53Z
2020-12-28T06:59:56Z,42.805,6.029,13.2991,4.60000,2470.217,2020-12-28T09:00:56Z
2020-12-28T07:03:00Z,42.805,6.029,13.2987,4.60004,2470.133,2020-12-28T09:04:00Z
2020-12-28T07:06:03Z,42.805,6.029,13.2986,4.59996,2470.18,2020-12-28T09:07:03Z
2020-12-28T07:09:06Z,42.805,6.029,13.2988,4.59998,2470.217,2020-12-28T09:10:06Z
2020-12-28T07:12:09Z,42.805,6.029,13.2986,4.60013,2470.217,2020-12-28T09:13:09Z
2020-12-28T07:15:12Z,42.805,6.029,13.2983,4.59993,2470.194,2020-12-28T09:16:12Z
2020-12-28T07:18:15Z,42.805,6.029,13.2983,4.59996,2470.18,2020-12-28T09:19:15Z
2020-12-28T07:21:18Z,42.805,6.029,13.2981,4.60003,2470.147,2020-12-28T09:22:18Z
2020-12-28T07:24:21Z,42.805,6.029,13.2983,4.59999,2470.18,2020-12-28T09:25:21Z
2020-12-28T07:27:25Z,42.805,6.029,13.2987,4.60002,2470.194,2020-12-28T09:28:25Z
2020-12-28T07:30:28Z,42.805,6.029,13.2988,4.60001,2470.18,2020-12-28T09:31:28Z
2020-12-28T07:33:31Z,42.805,6.029,13.2987,4.60004,2470.203,2020-12-28T09:34:31Z
2020-12-28T07:36:34Z,42.805,6.029,13.2982,4.60003,2470.203,2020-12-28T09:37:34Z
2020-12-28T07:39:37Z,42.805,6.029,13.2987,4.60009,2470.133,2020-12-28T09:40:37Z
2020-12-28T07:42:40Z,42.805,6.029,13.2988,4.60003,2470.133,2020-12-28T09:43:40Z
2020-12-28T07:45:44Z,42.805,6.029,13.2983,4.60006,2470.133,2020-12-28T09:46:44Z
2020-12-28T07:48:47Z,42.805,6.029,13.2995,4.60011,2470.194,2020-12-28T09:49:47Z
2020-12-28T07:51:50Z,42.805,6.029,13.3021,4.60033,2470.171,2020-12-28T09:52:50Z
2020-12-28T07:54:53Z,42.805,6.029,13.3020,4.60021,2470.171,2020-12-28T09:55:53Z
2020-12-28T07:57:57Z,42.805,6.029,13.3009,4.60028,2470.18,2020-12-28T09:58:56Z
2020-12-28T08:01:00Z,42.805,6.029,13.2992,4.60031,2470.156,2020-12-28T10:02:00Z
2020-12-28T08:04:03Z,42.805,6.029,13.2984,4.60017,2470.194,2020-12-28T10:05:03Z
2020-12-28T08:07:06Z,42.805,6.029,13.3030,4.60009,2470.194,2020-12-28T10:08:06Z
2020-12-28T08:10:09Z,42.805,6.029,13.2986,4.60011,2470.171,2020-12-28T10:11:09Z
2020-12-28T08:13:12Z,42.805,6.029,13.2985,4.60019,2470.171,2020-12-28T10:14:12Z
2020-12-28T08:16:15Z,42.805,6.029,13.2990,4.60015,2470.147,2020-12-28T10:17:15Z
2020-12-28T08:19:18Z,42.805,6.029,13.2983,4.60006,2470.171,2020-12-28T10:20:18Z
2020-12-28T08:22:22Z,42.805,6.029,13.2987,4.60003,2470.18,2020-12-28T10:23:21Z
2020-12-28T08:25:25Z,42.805,6.029,13.2983,4.60009,2470.156,2020-12-28T10:26:25Z
2020-12-28T08:28:28Z,42.805,6.029,13.3026,4.60025,2470.156,2020-12-28T10:29:28Z
2020-12-28T08:31:31Z,42.805,6.029,13.2990,4.60021,2470.156,2020-12-28T10:32:31Z
2020-12-28T08:34:34Z,42.805,6.029,13.2990,4.60011,2470.18,2020-12-28T10:35:34Z
2020-12-28T08:37:37Z,42.805,6.029,13.2994,4.60008,2470.156,2020-12-28T10:38:37Z
2020-12-28T08:40:40Z,42.805,6.029,13.2985,4.60014,2470.156,2020-12-28T10:41:40Z
2020-12-28T08:43:43Z,42.805,6.029,13.2982,4.60005,2470.156,2020-12-28T10:44:43Z
2020-12-28T08:46:47Z,42.805,6.029,13.2992,4.60019,2470.171,2020-12-28T10:47:47Z
2020-12-28T08:49:50Z,42.805,6.029,13.2991,4.60008,2470.133,2020-12-28T10:50:50Z
2020-12-28T08:52:53Z,42.805,6.029,13.2989,4.60003,2470.156,2020-12-28T10:53:53Z
2020-12-28T08:55:56Z,42.805,6.029,13.2990,4.60005,2470.171,2020-12-28T10:56:56Z
2020-12-28T08:58:59Z,42.805,6.029,13.2991,4.60003,2470.133,2020-12-28T10:59:59Z
2020-12-28T09:02:02Z,42.805,6.029,13.2989,4.60013,2470.156,2020-12-28T11:03:02Z
2020-12-28T09:05:05Z,42.805,6.029,13.2996,4.60015,2470.194,2020-12-28T11:06:05Z
2020-12-28T09:08:08Z,42.805,6.029,13.2990,4.60004,2470.171,2020-12-28T11:09:08Z
2020-12-28T09:11:12Z,42.805,6.029,13.2995,4.60014,2470.18,2020-12-28T11:12:12Z
2020-12-28T09:14:15Z,42.805,6.029,13.2987,4.60005,2470.156,2020-12-28T11:15:15Z
2020-12-28T09:17:18Z,42.805,6.029,13.2986,4.60008,2470.171,2020-12-28T11:18:18Z
2020-12-28T09:20:21Z,42.805,6.029,13.2986,4.59999,2470.156,2020-12-28T11:21:21Z
2020-12-28T09:23:24Z,42.805,6.029,13.2982,4.60009,2470.133,2020-12-28T11:24:24Z
2020-12-28T09:26:27Z,42.805,6.029,13.2987,4.60004,2470.194,2020-12-28T11:27:27Z
2020-12-28T09:29:30Z,42.805,6.029,13.2988,4.60008,2470.171,2020-12-28T11:30:30Z
2020-12-28T09:32:33Z,42.805,6.029,13.2989,4.60008,2470.11,2020-12-28T11:33:33Z
2020-12-28T09:35:37Z,42.805,6.029,13.2988,4.60016,2470.171,2020-12-28T11:36:37Z
2020-12-28T09:38:40Z,42.805,6.029,13.2986,4.60011,2470.133,2020-12-28T11:39:40Z
2020-12-28T09:41:43Z,42.805,6.029,13.3009,4.60009,2470.133,2020-12-28T11:42:43Z
2020-12-28T09:44:46Z,42.805,6.029,13.2986,4.60008,2470.11,2020-12-28T11:45:46Z
2020-12-28T09:47:49Z,42.805,6.029,13.2988,4.60010,2470.133,2020-12-28T11:48:49Z
2020-12-28T09:50:52Z,42.805,6.029,13.2991,4.60009,2470.133,2020-12-28T11:51:52Z
2020-12-28T09:53:55Z,42.805,6.029,13.2988,4.60006,2470.147,2020-12-28T11:54:55Z
2020-12-28T09:56:59Z,42.805,6.029,13.2984,4.60001,2470.11,2020-12-28T11:57:58Z
2020-12-28T10:00:02Z,42.805,6.029,13.2986,4.60002,2470.11,2020-12-28T12:01:02Z
2020-12-28T10:03:05Z,42.805,6.029,13.2985,4.60012,2470.133,2020-12-28T12:04:05Z
2020-12-28T10:06:08Z,42.805,6.029,13.2984,4.60004,2470.147,2020-12-28T12:07:08Z
2020-12-28T10:09:11Z,42.805,6.029,13.2986,4.60002,2470.124,2020-12-28T12:10:11Z
2020-12-28T10:12:14Z,42.805,6.029,13.2988,4.59998,2470.124,2020-12-28T12:13:14Z
2020-12-28T10:15:17Z,42.805,6.029,13.2987,4.60000,2470.124,2020-12-28T12:16:17Z
2020-12-28T10:18:20Z,42.805,6.029,13.2986,4.60007,2470.11,2020-12-28T12:19:20Z
2020-12-28T10:21:24Z,42.805,6.029,13.2983,4.60004,2470.156,2020-12-28T12:22:23Z
2020-12-28T10:24:27Z,42.805,6.029,13.2987,4.60003,2470.11,2020-12-28T12:25:27Z
2020-12-28T10:27:30Z,42.805,6.029,13.2988,4.60009,2470.124,2020-12-28T12:28:30Z
2020-12-28T10:30:33Z,42.805,6.029,13.2989,4.60002,2470.11,2020-12-28T12:31:33Z
2020-12-28T10:33:36Z,42.805,6.029,13.2985,4.60008,2470.147,2020-12-28T12:34:36Z
2020-12-28T10:36:39Z,42.805,6.029,13.2986,4.59998,2470.124,2020-12-28T12:37:39Z
2020-12-28T10:39:42Z,42.805,6.029,13.2983,4.59994,2470.133,2020-12-28T12:40:42Z
2020-12-28T10:42:45Z,42.805,6.029,13.2983,4.59996,2470.133,2020-12-28T12:43:45Z
2020-12-28T10:45:49Z,42.805,6.029,13.2985,4.59992,2470.124,2020-12-28T12:46:49Z
2020-12-28T10:48:52Z,42.805,6.029,13.2983,4.59994,2470.124,2020-12-28T12:49:52Z
2020-12-28T10:51:55Z,42.805,6.029,13.2986,4.59998,2470.063,2020-12-28T12:52:55Z
2020-12-28T10:54:58Z,42.805,6.029,13.2982,4.59995,2470.1,2020-12-28T12:55:58Z
2020-12-28T10:58:01Z,42.805,6.029,13.2988,4.60003,2470.1,2020-12-28T12:59:01Z
2020-12-28T11:01:04Z,42.805,6.029,13.2990,4.60012,2470.124,2020-12-28T13:02:04Z
2020-12-28T11:04:07Z,42.805,6.029,13.2987,4.60003,2470.11,2020-12-28T13:05:07Z
2020-12-28T11:07:10Z,42.805,6.029,13.2986,4.60000,2470.133,2020-12-28T13:08:10Z
2020-12-28T11:10:14Z,42.805,6.029,13.2987,4.59997,2470.063,2020-12-28T13:11:14Z
2020-12-28T11:13:17Z,42.805,6.029,13.2983,4.59993,2470.11,2020-12-28T13:14:17Z
2020-12-28T11:16:20Z,42.805,6.029,13.2986,4.59996,2470.077,2020-12-28T13:17:20Z
2020-12-28T11:19:23Z,42.805,6.029,13.2986,4.59994,2470.063,2020-12-28T13:20:23Z
2020-12-28T11:22:26Z,42.805,6.029,13.2983,4.59993,2470.1,2020-12-28T13:23:26Z
2020-12-28T11:25:29Z,42.805,6.029,13.2986,4.59994,2470.087,2020-12-28T13:26:29Z
2020-12-28T11:28:32Z,42.805,6.029,13.2984,4.59993,2470.087,2020-12-28T13:29:32Z
2020-12-28T11:31:35Z,42.805,6.029,13.2987,4.59991,2470.087,2020-12-28T13:32:35Z
2020-12-28T11:34:39Z,42.805,6.029,13.2985,4.59993,2470.087,2020-12-28T13:35:39Z
2020-12-28T11:37:42Z,42.805,6.029,13.2984,4.59993,2470.063,2020-12-28T13:38:42Z
2020-12-28T11:40:45Z,42.805,6.029,13.2986,4.59992,2470.087,2020-12-28T13:41:45Z
2020-12-28T11:43:48Z,42.805,6.029,13.2985,4.59994,2470.1,2020-12-28T13:44:48Z
2020-12-28T11:46:51Z,42.805,6.029,13.2984,4.59994,2470.063,2020-12-28T13:47:51Z
2020-12-28T11:49:54Z,42.805,6.029,13.2986,4.59994,2470.087,2020-12-28T13:50:54Z
2020-12-28T11:52:57Z,42.805,6.029,13.2985,4.59991,2470.11,2020-12-28T13:53:57Z
2020-12-28T11:56:00Z,42.805,6.029,13.2985,4.59991,2470.087,2020-12-28T13:57:00Z
2020-12-28T11:59:04Z,42.805,6.029,13.2985,4.59994,2470.087,2020-12-28T14:00:04Z
2020-12-28T12:02:07Z,42.805,6.029,13.2982,4.59992,2470.087,2020-12-28T14:03:07Z
2020-12-28T12:05:10Z,42.805,6.029,13.2985,4.59993,2470.077,2020-12-28T14:06:10Z
2020-12-28T12:08:13Z,42.805,6.029,13.2981,4.59992,2470.063,2020-12-28T14:09:13Z
2020-12-28T12:11:16Z,42.805,6.029,13.2985,4.59993,2470.1,2020-12-28T14:12:16Z
2020-12-28T12:14:19Z,42.805,6.029,13.2986,4.59986,2470.077,2020-12-28T14:15:19Z
2020-12-28T12:17:22Z,42.805,6.029,13.2983,4.59993,2470.077,2020-12-28T14:18:22Z
2020-12-28T12:20:25Z,42.805,6.029,13.2986,4.59997,2470.063,2020-12-28T14:21:25Z
2020-12-28T12:23:29Z,42.805,6.029,13.2986,4.59994,2470.063,2020-12-28T14:24:29Z
2020-12-28T12:26:32Z,42.805,6.029,13.2986,4.59992,2470.077,2020-12-28T14:27:32Z
2020-12-28T12:29:35Z,42.805,6.029,13.2990,4.59996,2470.077,2020-12-28T14:30:35Z
2020-12-28T12:32:38Z,42.805,6.029,13.2985,4.59993,2470.077,2020-12-28T14:33:38Z
2020-12-28T12:35:41Z,42.805,6.029,13.2986,4.59993,2470.077,2020-12-28T14:36:41Z
2020-12-28T12:38:44Z,42.805,6.029,13.2984,4.59993,2470.1,2020-12-28T14:39:44Z
2020-12-28T12:41:47Z,42.805,6.029,13.2987,4.59994,2470.04,2020-12-28T14:42:47Z
2020-12-28T12:44:50Z,42.805,6.029,13.2983,4.59992,2470.04,2020-12-28T14:45:50Z
2020-12-28T12:47:54Z,42.805,6.029,13.2986,4.59993,2470.087,2020-12-28T14:48:54Z
2020-12-28T12:50:57Z,42.805,6.029,13.2982,4.59993,2470.04,2020-12-28T14:51:57Z
2020-12-28T12:54:00Z,42.805,6.029,13.2983,4.59993,2470.053,2020-12-28T14:55:00Z
2020-12-28T12:57:03Z,42.805,6.029,13.2985,4.59992,2470.063,2020-12-28T14:58:03Z
2020-12-28T13:00:06Z,42.805,6.029,13.2983,4.59996,2470.077,2020-12-28T15:01:06Z
2020-12-28T13:03:09Z,42.805,6.029,13.2984,4.59992,2470.077,2020-12-28T15:04:09Z
2020-12-28T13:06:12Z,42.805,6.029,13.2985,4.59994,2470.04,2020-12-28T15:07:12Z
2020-12-28T13:09:15Z,42.805,6.029,13.2988,4.59995,2470.017,2020-12-28T15:10:15Z
2020-12-28T13:12:19Z,42.805,6.029,13.2986,4.59995,2470.063,2020-12-28T15:13:19Z
2020-12-28T13:15:22Z,42.805,6.029,13.2983,4.59993,2470.063,2020-12-28T15:16:22Z
2020-12-28T13:18:25Z,42.805,6.029,13.2983,4.59993,2470.087,2020-12-28T15:19:25Z
2020-12-28T13:21:28Z,42.805,6.029,13.2988,4.59991,2470.1,2020-12-28T15:22:28Z
2020-12-28T13:24:31Z,42.805,6.029,13.2986,4.59994,2470.063,2020-12-28T15:25:31Z
2020-12-28T13:27:34Z,42.805,6.029,13.2986,4.59991,2470.053,2020-12-28T15:28:34Z
2020-12-28T13:30:37Z,42.805,6.029,13.2985,4.59994,2470.077,2020-12-28T15:31:37Z
2020-12-28T13:33:41Z,42.805,6.029,13.2984,4.59994,2470.1,2020-12-28T15:34:40Z
2020-12-28T13:36:44Z,42.805,6.029,13.2983,4.59994,2470.087,2020-12-28T15:37:44Z
2020-12-28T13:39:47Z,42.805,6.029,13.2982,4.59992,2470.087,2020-12-28T15:40:47Z
2020-12-28T13:42:50Z,42.805,6.029,13.2987,4.59995,2470.087,2020-12-28T15:43:50Z
2020-12-28T13:45:53Z,42.805,6.029,13.2982,4.59993,2470.063,2020-12-28T15:46:53Z
2020-12-28T13:48:56Z,42.805,6.029,13.2984,4.59992,2470.063,2020-12-28T15:49:56Z
2020-12-28T13:51:59Z,42.805,6.029,13.2987,4.59991,2470.124,2020-12-28T15:52:59Z
2020-12-28T13:55:02Z,42.805,6.029,13.2991,4.59992,2470.087,2020-12-28T15:56:02Z
2020-12-28T13:58:06Z,42.805,6.029,13.2988,4.59993,2470.087,2020-12-28T15:59:05Z
2020-12-28T14:01:09Z,42.805,6.029,13.2985,4.59992,2470.087,2020-12-28T16:02:09Z
2020-12-28T14:04:12Z,42.805,6.029,13.2984,4.59992,2470.063,2020-12-28T16:05:12Z
2020-12-28T14:07:15Z,42.805,6.029,13.2984,4.59992,2470.1,2020-12-28T16:08:15Z
2020-12-28T14:10:18Z,42.805,6.029,13.2986,4.59991,2470.087,2020-12-28T16:11:18Z
2020-12-28T14:13:21Z,42.805,6.029,13.2987,4.59992,2470.053,2020-12-28T16:14:21Z
2020-12-28T14:16:24Z,42.805,6.029,13.2979,4.59991,2470.063,2020-12-28T16:17:24Z
2020-12-28T14:19:27Z,42.805,6.029,13.2983,4.59991,2470.124,2020-12-28T16:20:27Z
2020-12-28T14:22:31Z,42.805,6.029,13.2988,4.59991,2470.04,2020-12-28T16:23:30Z
2020-12-28T14:25:34Z,42.805,6.029,13.2983,4.59991,2470.077,2020-12-28T16:26:34Z
2020-12-28T14:28:37Z,42.805,6.029,13.2983,4.59992,2470.04,2020-12-28T16:29:37Z
2020-12-28T14:31:40Z,42.805,6.029,13.2985,4.59992,2470.087,2020-12-28T16:32:40Z
2020-12-28T14:34:43Z,42.805,6.029,13.2984,4.59992,2470.049,2020-12-28T16:35:43Z
2020-12-28T14:37:46Z,42.805,6.029,13.2982,4.59992,2470.1,2020-12-28T16:38:46Z
2020-12-28T14:40:49Z,42.805,6.029,13.2985,4.59991,2470.087,2020-12-28T16:41:49Z
2020-12-28T14:43:52Z,42.805,6.029,13.2984,4.59991,2470.1,2020-12-28T16:44:52Z
2020-12-28T14:46:56Z,42.805,6.029,13.2983,4.59991,2470.087,2020-12-28T16:47:56Z
2020-12-28T14:49:59Z,42.805,6.029,13.2985,4.59991,2470.087,2020-12-28T16:50:59Z
2020-12-28T14:53:02Z,42.805,6.029,13.2984,4.59991,2470.087,2020-12-28T16:54:02Z
2020-12-28T14:56:05Z,42.805,6.029,13.2983,4.59993,2470.063,2020-12-28T16:57:05Z
2020-12-28T14:59:08Z,42.805,6.029,13.2986,4.59990,2470.11,2020-12-28T17:00:08Z
2020-12-28T15:02:11Z,42.805,6.029,13.2984,4.59993,2470.124,2020-12-28T17:03:11Z